Location: Columbia
(38.9520°N, 92.3340°W)
Time: 19:01:24
(UTC-05:00)

Daily predictions for brighter satellites

Satellite Brightness Start Highest point End
(mag) Time Altitude Azimuth Time Altitude Azimuth Time Altitude Azimuth
Cosmos 407 Rocket 3.9 21:06:06 10° SSW 21:11:11 69° WNW 21:16:18 10° NNE
Cosmos 2237 Rocket 2.3 21:05:35 10° NNW 21:11:13 70° ENE 21:16:48 10° SSE
Tiangong 1 0.7 21:10:01 10° WSW 21:12:47 64° SSE 21:15:33 10° ENE
Milstar 3 Cent rocket 3.9 21:11:20 10° WSW 21:17:38 42° S 21:29:44 10° ESE
YAOGAN 6 3.0 21:15:04 10° SSE 21:18:32 47° ENE 21:22:04 10° N
USA 186 3.3 21:18:57 10° SSW 21:21:00 23° W 21:22:57 10° NW
Meteor 1-24 Rocket 3.8 21:16:09 10° S 21:22:06 77° E 21:27:54 10° NNE
Okean 3 Rocket 4.5 21:18:17 10° SSE 21:22:15 31° E 21:26:12 10° NNE
SL-8 R/B 3.8 21:18:47 10° WNW 21:23:33 75° SW 21:28:07 11° SE
Cosmos 1954 Rocket 4.0 21:18:55 10° SSW 21:24:07 83° ESE 21:29:19 10° NNE
Cosmos 2227 Rocket 2.5 21:19:01 10° SSW 21:24:40 76° WNW 21:30:20 10° NNE
Cosmos 1850 Rocket 4.4 21:23:14 10° S 21:28:01 40° ESE 21:32:50 10° NE
Cosmos 2221 3.3 21:27:40 10° N 21:31:44 36° ENE 21:35:20 12° SE
Cosmos 1674 3.8 21:29:46 11° SE 21:32:42 25° E 21:35:51 10° NE
SL-16 R/B 2.8 21:28:25 10° N 21:33:51 45° ENE 21:38:38 13° SE
H-2A R/B 3.6 21:31:57 10° ESE 21:35:55 23° ENE 21:40:01 10° NNE
Cosmos 614 Rocket 3.9 21:31:41 10° S 21:36:53 73° ESE 21:42:04 10° NNE
In-Cosmos 22 4.2 21:35:50 10° S 21:41:30 82° E 21:47:17 10° N
Resurs 01 Rocket 4.1 21:39:32 10° SW 21:42:40 19° W 21:45:50 10° NW
Cosmos 1818 4.3 21:37:49 10° NNW 21:42:59 41° NE 21:47:13 14° ESE
SPOT 5 3.8 21:39:46 14° SE 21:43:20 34° ENE 21:47:48 10° N
ARGOS 3.8 21:39:06 13° SE 21:43:31 40° ENE 21:48:33 10° N
Meteor 2-1 Rocket 4.3 21:38:35 10° N 21:44:28 86° E 21:50:11 10° S
USA 234 3.2 21:38:07 10° NE 21:44:37 64° SE 21:51:05 10° SSW
USA 245 4.4 21:42:55 15° ESE 21:44:43 24° ENE 21:47:48 10° NNE
Lacrosse 5 3.9 21:41:29 10° NNW 21:45:08 19° NNE 21:48:47 10° ENE
ERS-1 Rocket 3.0 21:41:41 11° SSE 21:46:26 69° ENE 21:51:27 10° N
MetOp-A 4.3 21:43:18 13° SSE 21:47:59 57° ENE 21:53:14 10° N
Cosmos 1741 Rocket 4.0 21:46:20 10° S 21:51:35 66° ESE 21:56:52 10° NNE
Cosmos 2333 Rocket 3.6 21:47:28 10° NW 21:52:33 35° WSW 21:57:34 10° SSW
Cosmos 2219 Rocket 4.0 21:49:30 10° NW 21:54:12 27° WSW 21:58:52 10° SSW
CZ-4B DEB 4.0 21:53:01 10° SSW 21:55:46 34° W 21:58:31 10° NNW
Cosmos 2061 Rocket 4.4 21:50:03 10° N 21:56:13 50° E 22:01:00 17° SSE
RESURS DK-1 4.5 21:55:46 10° NNE 21:58:19 16° NE 22:00:38 11° E
Cosmos 2100 Rocket 4.1 21:52:12 10° N 21:58:27 62° E 22:03:34 16° SSE
Cosmos 1184 Rocket 4.0 21:57:26 10° SSW 22:00:39 43° WNW 22:03:53 10° N
Cosmos 1459 Rocket 4.1 21:55:02 10° N 22:01:16 60° E 22:06:02 17° SSE
H-2A R/B 4.3 22:00:35 10° E 22:02:22 12° ENE 22:04:08 10° NE
NOAA 11 4.2 22:00:50 14° SSE 22:05:32 89° WSW 22:11:00 10° NNW
Meteor 1-21 Rocket 4.2 22:04:56 10° S 22:10:36 72° E 22:16:13 10° NNE
NOSS 3-4 (A) 4.1 22:03:48 10° NW 22:10:50 66° WSW 22:16:43 18° SSE
NOSS 3-4 (C) 4.1 22:03:53 10° NW 22:10:56 67° WSW 22:16:48 18° SSE
Cosmos 2173 Rocket 4.0 22:07:06 10° N 22:13:16 74° E 22:17:52 19° SSE
SL-14 R/B 4.3 22:19:16 27° ESE 22:20:01 29° E 22:23:28 10° NNE
Cosmos 2084 3.3 22:19:23 10° SW 22:23:24 77° NW 22:27:16 10° NNE
Cosmos 2208 Rocket 4.0 22:18:23 10° NNW 22:23:44 87° ENE 22:26:54 26° SSE
Cosmos 2297 Rocket 4.1 22:20:44 10° WSW 22:25:40 31° WNW 22:30:40 10° N
Cosmos 1242 Rocket 2.7 22:24:48 10° NNW 22:28:31 74° W 22:30:09 31° S
Cosmos 1802 Rocket 3.9 22:22:59 10° N 22:29:09 84° E 22:33:11 23° S
Nimbus 7 Rocket 4.4 22:23:31 10° NNE 22:29:33 73° ESE 22:34:24 16° S
SPOT 1/Viking Rocket 3.5 22:27:37 28° SSE 22:30:24 73° ENE 22:35:33 10° N
Terra 2.7 22:31:59 27° ESE 22:33:42 35° ENE 22:38:02 10° N
Cosmos 1725 Rocket 4.3 22:27:42 10° N 22:33:49 53° E 22:36:52 29° SE
Cosmos 1300 3.1 22:35:25 10° N 22:39:07 45° E 22:39:44 41° ESE
Cosmos 2263 Rocket 3.2 22:38:53 25° ESE 22:39:15 25° ESE 22:43:43 10° NE
Cosmos 1570 Rocket 4.4 22:34:21 10° NNW 22:39:34 60° WSW 22:42:31 25° S
Cosmos 1626 3.9 22:46:13 19° ENE 22:46:13 19° ENE 22:48:14 10° NE
deb Chang Zheng 4 4.4 22:43:09 10° NE 22:47:05 32° E 22:47:09 32° E
Cosmos 1408 Rocket 3.9 22:44:50 22° SSW 22:47:29 62° W 22:51:46 10° N
Tiangong 1 2.2 22:45:51 10° WNW 22:48:29 38° N 22:49:18 29° NE
Cosmos 1867 4.2 22:43:26 10° SW 22:48:46 58° NW 22:54:10 10° NNE
Cosmos 220 Rocket 4.2 22:48:02 45° SE 22:48:52 52° ESE 22:53:10 10° NNE
SS 2 4.5 22:46:56 10° NW 22:49:51 83° WSW 22:49:52 83° SW
ATLAS 5 CENTAUR R/B 3.3 22:45:47 10° WSW 22:50:06 37° NW 22:54:49 10° NNE
Cosmos 332 Rocket 4.0 22:46:22 10° N 22:51:13 59° ENE 22:52:42 41° SE
Cosmos 1763 Rocket 4.1 22:47:52 10° N 22:52:41 40° ENE 22:54:12 32° ESE
Cosmos 1726 2.0 22:49:53 10° N 22:53:35 83° W 22:54:10 61° S
Atlas Centaur 2 3.5 22:52:03 10° SW 22:52:23 11° SW 22:52:23 11° SW
Cosmos 1864 Rocket 4.5 22:51:40 10° N 22:58:03 82° E 23:01:00 35° SSE
Cosmos 1603 3.6 22:55:08 10° NNW 23:00:49 82° ENE 23:02:49 42° SSE
Meteor 2-10 4.1 22:55:31 10° N 23:01:07 80° E 23:03:14 41° SSE
Cosmos 2016 Rocket 4.3 22:57:29 10° NNW 23:03:40 62° W 23:07:11 26° SSW
Cosmos 1500 Rocket 3.5 23:05:53 57° SSE 23:06:38 72° E 23:11:05 10° NNE
Cosmos 2058 3.0 23:12:00 57° E 23:12:01 57° E 23:16:09 10° NNE
Cosmos 1455 3.8 23:10:07 10° NNE 23:12:57 24° ENE 23:12:57 24° ENE
H-2A R/B 2.9 23:12:35 28° SSW 23:14:57 45° W 23:20:08 10° NNW
CARTOSAT-1 3.5 23:15:42 63° S 23:16:22 80° W 23:20:41 10° NNW
SL-16 R/B 3.9 23:13:13 10° NW 23:17:37 24° W 23:20:32 16° SW
Cosmos 468 Rocket 4.2 23:13:11 10° NNW 23:18:14 61° WSW 23:19:37 44° SSW
Cosmos 1943 3.4 23:13:33 10° NNW 23:19:08 57° ENE 23:20:39 43° ESE
Cosmos 1503 Rocket 4.4 23:19:42 42° ESE 23:19:43 42° ESE 23:24:34 10° NNE
OAO 1 Rocket 4.4 23:14:34 10° WSW 23:19:48 56° S 23:20:01 56° SSE
Cosmos 2151 2.8 23:22:03 75° S 23:22:24 89° ESE 23:26:44 10° N
Cosmos 1703 3.5 23:25:25 60° ENE 23:25:25 60° ENE 23:28:58 10° NNE
Cosmos 2228 Rocket 3.7 23:24:02 10° NNW 23:28:29 50° W 23:29:26 42° SW
Lacrosse 5 1.8 23:23:43 10° NW 23:28:48 82° NE 23:29:38 62° ESE
Cosmos 2233 Rocket 3.9 23:23:28 10° N 23:29:43 89° W 23:31:37 48° S
Cosmos 1328 Rocket 4.5 23:29:02 10° NNW 23:33:04 38° W 23:33:53 35° WSW
Meteor 1-11 4.4 23:31:16 40° SSW 23:33:27 75° W 23:39:18 10° N
Cosmos 1515 Rocket 4.0 23:31:17 10° NNW 23:35:30 51° W 23:35:57 49° WSW
RESURS DK-1 3.0 23:32:38 10° NW 23:36:33 46° WSW 23:36:33 46° WSW
H-2A R/B 2.3 23:37:37 58° WSW 23:37:53 59° WSW 23:42:08 10° NNW
Abrixas rocket 3.9 23:35:42 10° NW 23:38:21 31° N 23:38:21 31° N
SL-24 R/B 4.5 23:40:46 74° NE 23:40:46 74° NE 23:44:44 10° N
Cosmos 371 Rocket 3.6 23:37:52 10° NNW 23:42:33 52° WSW 23:43:02 50° SW
ARGOS Delta rocket 4.3 23:42:51 10° NNE 23:47:59 49° E 23:47:59 49° E
Cosmos 1151 Rocket 3.6 23:44:26 10° NNW 23:48:39 48° W 23:48:52 48° WSW
Meteor 1-27 4.5 23:43:07 10° NNW 23:48:52 64° W 23:50:12 50° SSW
CZ-4B R/B 3.7 23:47:36 10° N 23:52:53 73° WNW 23:53:59 54° SW
SME Rocket 3.1 23:55:03 67° N 23:55:03 67° N 23:58:46 10° NNW
